Regional Weather Roundup
Issued by NWS

Home | Current Version | Previous Version | Text Only | Print | Product List | Glossary Off
Versions: 1 2 3 4 5 6 7 8 9 10 11 12 13 14 15 16 17 18 19 20 21 22 23 24 25 26 27 28 29 30 31 32 33 34 35 36 37 38 39 40 41 42 43 44 45 46 47 48 49 50

344
ASUS43 KBIS 272202
RWRND

NORTH DAKOTA REGIONAL WEATHER ROUNDUP
NATIONAL WEATHER SERVICE BISMARCK ND
500 PM CDT WED JUL 27 2016

NOTE: "FAIR" INDICATES FEW OR NO CLOUDS BELOW 12,000 FEET WITH NO
SIGNIFICANT WEATHER AND/OR OBSTRUCTIONS TO VISIBILITY.


NDZ001>003-009>011-017-272300-
NORTHWEST NORTH DAKOTA

CITY           SKY/WX    TMP DP  RH WIND       PRES   REMARKS
WILLISTON      CLOUDY    68  60  75 NE14      30.15S
MINOT          CLOUDY    76  57  51 E9        30.13R
MINOT AFB      CLOUDY    73  57  56 E9        30.12S
$$

NDZ018>021-031>035-040>046-272300-
SOUTHWEST NORTH DAKOTA

CITY           SKY/WX    TMP DP  RH WIND       PRES   REMARKS
BISMARCK       CLOUDY    78  60  53 E8        30.09F
DICKINSON      PTSUNNY   72  59  63 CALM      30.10F
GARRISON         N/A     74  61  63 E10       30.11F
HETTINGER ARPT PTSUNNY   69  64  84 E9        30.12F
$$

NDZ004>008-012>016-024-026-027-054-272300-
NORTHEAST NORTH DAKOTA

CITY           SKY/WX    TMP DP  RH WIND       PRES   REMARKS
GRAND FORKS    MOSUNNY   77  58  51 N15       30.04F
GRND FRKS AFB  SUNNY     77  57  51 N15       30.06F
DEVILS LAKE    MOSUNNY   71  56  58 N12       30.12S
$$

NDZ022-023-025-028>030-036>039-047>053-272300-
SOUTHEAST NORTH DAKOTA

CITY           SKY/WX    TMP DP  RH WIND       PRES   REMARKS
FARGO          SUNNY     78  58  49 N15       30.02F
JAMESTOWN      MOSUNNY   75  59  57 N9        30.08S
$$





USA.gov is the U.S. government's official web portal to all federal, state and local government web resources and services.